WXM80 ListenWXM80 Stop

You find our weather info also at:

UK Metoffice

WeatherCloud

Weather Underground

Northeastern Weather Network

AWEKAS

Citizen Weather Observer Program (CWOP)

HAMweather, WeatherForYou, PWS Weather


Weather Underground History page Text

Daily Summary for April 8, 2017 Units:  Metric    English   Both
« Previous Day
Next Day »
Daily Weekly Monthly Yearly Custom
  High: Low: Average:
Temperature: 13.5 °C 4.3 °C 8.4 °C
Dew Point: 0.7 °C -2.3 °C -0.9 °C
Humidity: 70 % 36 % 53 %
Wind Speed: 20.4 km/h 0.6 km/h 10 km/h
Wind Gust: 38.9 km/h - -
Wind:- - WNW
Pressure: 1015.5 hPa 1001.6 hPa -
Precipitation: 0 mm    
Historical Graphs
 
 
Tabular Data for April 8, 2017
Time Temperature Dew Point Pressure Wind Wind Speed Wind Gust Humidity Rainfall Rate (Hourly)
00:04 5.1 °C -0.3 °C 1001.9 hPa NW 1.6 km/h 1.9 km/h 68 % 0 mm
00:09 5.1 °C -0.5 °C 1001.6 hPa SW 12.9 km/h 31.5 km/h 67 % 0 mm
00:14 5.1 °C -0.5 °C 1001.9 hPa West 12.7 km/h 38.9 km/h 67 % 0 mm
00:19 5.1 °C -0.6 °C 1001.9 hPa NW 15.1 km/h 27.8 km/h 67 % 0 mm
00:24 5.1 °C -0.4 °C 1001.9 hPa NNW 15.8 km/h 25.9 km/h 68 % 0 mm
00:29 5.1 °C -0.4 °C 1001.9 hPa West 5.5 km/h 14.8 km/h 68 % 0 mm
00:34 5 °C -0.2 °C 1002.3 hPa WSW 14.2 km/h 22.5 km/h 69 % 0 mm
00:39 4.9 °C -0.3 °C 1002.3 hPa SW 13.5 km/h 25.9 km/h 69 % 0 mm
00:44 4.9 °C -0.3 °C 1002.3 hPa West 10.9 km/h 16.7 km/h 69 % 0 mm
00:49 4.8 °C -0.4 °C 1002.3 hPa West 10.3 km/h 18.5 km/h 69 % 0 mm
00:54 4.8 °C -0.4 °C 1002.3 hPa WSW 10.5 km/h 19.3 km/h 69 % 0 mm
00:59 4.7 °C -0.5 °C 1002.3 hPa WSW 10 km/h 24.1 km/h 69 % 0 mm
01:04 4.7 °C -0.5 °C 1002.3 hPa West 10.8 km/h 18.5 km/h 69 % 0 mm
01:09 4.7 °C -0.3 °C 1002.6 hPa WNW 11.3 km/h 16.7 km/h 70 % 0 mm
01:14 4.7 °C -0.3 °C 1002.3 hPa WNW 9.3 km/h 18.5 km/h 70 % 0 mm
01:19 4.6 °C -0.4 °C 1002.6 hPa West 7.4 km/h 18.5 km/h 70 % 0 mm
01:24 4.6 °C -0.4 °C 1002.6 hPa West 15.6 km/h 22.2 km/h 70 % 0 mm
01:29 4.6 °C -0.4 °C 1002.6 hPa WSW 11.9 km/h 20.4 km/h 70 % 0 mm
01:34 4.6 °C -0.7 °C 1002.9 hPa WNW 10 km/h 20.4 km/h 69 % 0 mm
01:39 4.6 °C -0.7 °C 1002.6 hPa WSW 12.9 km/h 25.9 km/h 69 % 0 mm
01:44 4.6 °C -0.6 °C 1002.9 hPa WSW 11.9 km/h 27.8 km/h 69 % 0 mm
01:49 4.6 °C -0.6 °C 1002.9 hPa WSW 12.6 km/h 20.4 km/h 69 % 0 mm
01:54 4.7 °C -0.6 °C 1002.9 hPa West 15 km/h 24.1 km/h 69 % 0 mm
01:59 4.7 °C -0.6 °C 1002.9 hPa West 14.5 km/h 22.2 km/h 69 % 0 mm
02:04 4.7 °C -0.5 °C 1002.6 hPa SW 11.3 km/h 18.5 km/h 69 % 0 mm
02:09 4.7 °C -0.5 °C 1002.9 hPa WSW 12.7 km/h 22.2 km/h 69 % 0 mm
02:14 4.7 °C -0.3 °C 1002.9 hPa West 14.2 km/h 31.5 km/h 70 % 0 mm
02:19 4.7 °C -0.3 °C 1002.9 hPa WSW 18.3 km/h 29.6 km/h 70 % 0 mm
02:24 4.8 °C -0.4 °C 1002.9 hPa WNW 13.4 km/h 22.2 km/h 69 % 0 mm
02:30 4.8 °C -0.4 °C 1002.9 hPa WSW 16.6 km/h 31.5 km/h 69 % 0 mm
02:35 4.8 °C -0.4 °C 1002.9 hPa WNW 20.4 km/h 31.5 km/h 69 % 0 mm
02:40 4.8 °C -0.4 °C 1002.9 hPa West 13 km/h 18.5 km/h 69 % 0 mm
02:45 4.8 °C -0.2 °C 1002.9 hPa NW 16.9 km/h 20.4 km/h 70 % 0 mm
02:50 4.8 °C -0.2 °C 1002.9 hPa SW 14.2 km/h 29 km/h 70 % 0 mm
02:55 4.7 °C -0.3 °C 1002.9 hPa WSW 16.1 km/h 29 km/h 70 % 0 mm
03:00 4.7 °C -0.5 °C 1002.9 hPa West 13 km/h 24.1 km/h 69 % 0 mm
03:05 4.7 °C -0.5 °C 1002.9 hPa WSW 15.4 km/h 31.5 km/h 69 % 0 mm
03:10 4.7 °C -0.3 °C 1002.9 hPa West 9.3 km/h 22.2 km/h 70 % 0 mm
03:12 4.7 °C -0.3 °C 1002.9 hPa West 11.7 km/h 18.5 km/h 70 % 0 mm
03:17 4.7 °C -0.3 °C 1002.9 hPa NW 6.6 km/h 14.8 km/h 70 % 0 mm
03:22 4.7 °C -0.3 °C 1002.9 hPa WNW 8.4 km/h 18.5 km/h 70 % 0 mm
03:28 4.7 °C -0.3 °C 1002.9 hPa WNW 13.7 km/h 24.1 km/h 70 % 0 mm
03:33 4.7 °C -0.3 °C 1003.3 hPa SW 13.7 km/h 24.1 km/h 70 % 0 mm
03:38 4.7 °C -0.3 °C 1003.3 hPa WNW 15.6 km/h 24.1 km/h 70 % 0 mm
03:43 4.7 °C -0.5 °C 1003.3 hPa West 15.6 km/h 27.8 km/h 69 % 0 mm
03:48 4.7 °C -0.6 °C 1003.3 hPa WSW 8 km/h 14.8 km/h 69 % 0 mm
03:53 4.7 °C -0.6 °C 1003.3 hPa WSW 14.6 km/h 20.4 km/h 69 % 0 mm
03:58 4.6 °C -0.8 °C 1003.3 hPa WSW 11.4 km/h 16.7 km/h 68 % 0 mm
04:03 4.6 °C -0.8 °C 1003.6 hPa West 11.6 km/h 25.9 km/h 68 % 0 mm
04:08 4.6 °C -0.8 °C 1003.6 hPa SW 11.7 km/h 18.5 km/h 68 % 0 mm
04:13 4.6 °C -0.8 °C 1003.6 hPa SW 14.3 km/h 25.9 km/h 68 % 0 mm
04:18 4.6 °C -0.8 °C 1003.6 hPa SW 14.2 km/h 22.2 km/h 68 % 0 mm
04:23 4.6 °C -0.8 °C 1003.6 hPa West 13.7 km/h 22.2 km/h 68 % 0 mm
04:28 4.6 °C -0.8 °C 1003.6 hPa West 10.9 km/h 22.2 km/h 68 % 0 mm
04:33 4.6 °C -0.8 °C 1003.6 hPa WSW 6.6 km/h 24.1 km/h 68 % 0 mm
04:38 4.7 °C -1.2 °C 1003.9 hPa WNW 8.4 km/h 14.8 km/h 66 % 0 mm
04:43 4.7 °C -1.2 °C 1003.9 hPa West 7.2 km/h 16.7 km/h 66 % 0 mm
04:48 4.6 °C -1.4 °C 1003.9 hPa WSW 15.6 km/h 29.6 km/h 65 % 0 mm
04:53 4.6 °C -1.4 °C 1003.9 hPa WNW 10.8 km/h 20.4 km/h 65 % 0 mm
04:58 4.6 °C -1.4 °C 1003.9 hPa South 13.4 km/h 22.2 km/h 65 % 0 mm
05:03 4.6 °C -1.7 °C 1004.3 hPa West 10 km/h 22.2 km/h 64 % 0 mm
05:08 4.6 °C -1.4 °C 1004.3 hPa NW 7.6 km/h 14.8 km/h 65 % 0 mm
05:13 4.5 °C -1.3 °C 1004.3 hPa WNW 4.2 km/h 14.8 km/h 66 % 0 mm
05:18 4.4 °C -1.6 °C 1004.3 hPa WSW 4.8 km/h 13 km/h 65 % 0 mm
05:23 4.4 °C -1.6 °C 1004.3 hPa WNW 9 km/h 14.8 km/h 65 % 0 mm
05:28 4.4 °C -1.6 °C 1004.3 hPa West 3.7 km/h 16.7 km/h 65 % 0 mm
05:33 4.4 °C -1.8 °C 1004.3 hPa NW 9.5 km/h 24.1 km/h 64 % 0 mm
05:38 4.4 °C -1.8 °C 1004.3 hPa WSW 15.8 km/h 22.5 km/h 64 % 0 mm
05:43 4.4 °C -1.6 °C 1004.3 hPa NW 13.5 km/h 13.5 km/h 65 % 0 mm
05:48 4.4 °C -1.6 °C 1004.6 hPa West 10.5 km/h 22.2 km/h 65 % 0 mm
05:53 4.4 °C -1.6 °C 1004.6 hPa West 10.5 km/h 14.8 km/h 65 % 0 mm
05:58 4.4 °C -1.8 °C 1004.6 hPa West 9.5 km/h 24.1 km/h 64 % 0 mm
06:03 4.4 °C -2.1 °C 1004.6 hPa WNW 10.1 km/h 22.2 km/h 63 % 0 mm
06:08 4.4 °C -1.8 °C 1004.6 hPa WNW 9.8 km/h 14.8 km/h 64 % 0 mm
06:13 4.4 °C -1.8 °C 1004.6 hPa NW 11.6 km/h 20.9 km/h 64 % 0 mm
06:18 4.3 °C -1.9 °C 1005 hPa WNW 9.3 km/h 13 km/h 64 % 0 mm
06:23 4.3 °C -1.9 °C 1005 hPa NW 12.4 km/h 17.7 km/h 64 % 0 mm
06:28 4.3 °C -1.9 °C 1005 hPa NW 7.1 km/h 14.8 km/h 64 % 0 mm
06:33 4.3 °C -1.9 °C 1005 hPa WNW 6.3 km/h 18.5 km/h 64 % 0 mm
06:38 4.3 °C -1.9 °C 1005 hPa NW 10.8 km/h 20.4 km/h 64 % 0 mm
06:41 4.3 °C -1.9 °C 1005.3 hPa West 9.8 km/h 14.8 km/h 64 % 0 mm
06:46 4.3 °C -1.9 °C 1005.3 hPa WNW 9.3 km/h 14.8 km/h 64 % 0 mm
06:51 4.4 °C -1.8 °C 1005.3 hPa West 14 km/h 22.2 km/h 64 % 0 mm
06:56 4.5 °C -1.7 °C 1005.6 hPa NW 2.7 km/h 16.7 km/h 64 % 0 mm
07:01 4.6 °C -2.1 °C 1005.6 hPa WNW 10 km/h 20.9 km/h 62 % 0 mm
07:06 4.6 °C -2.3 °C 1005.6 hPa WNW 8 km/h 8 km/h 61 % 0 mm
07:07 4.7 °C -2 °C 1005.6 hPa WNW 8 km/h 8 km/h 62 % 0 mm
07:12 4.7 °C -1.7 °C 1006 hPa WNW 8.7 km/h 18.5 km/h 63 % 0 mm
07:17 4.8 °C -1.9 °C 1006 hPa WNW 10.6 km/h 18.5 km/h 62 % 0 mm
07:22 4.8 °C -1.8 °C 1006 hPa WNW 9.7 km/h 22.5 km/h 62 % 0 mm
07:27 4.9 °C -1.8 °C 1006 hPa WNW 8 km/h 19.3 km/h 62 % 0 mm
07:32 4.9 °C -1.7 °C 1006 hPa WNW 9.7 km/h 24.1 km/h 62 % 0 mm
07:37 5 °C -1.7 °C 1006 hPa WNW 12.9 km/h 25.7 km/h 62 % 0 mm
07:42 5.1 °C -1.4 °C 1006 hPa West 9.7 km/h 22.5 km/h 63 % 0 mm
07:47 5.2 °C -1.3 °C 1006.3 hPa West 9.7 km/h 19.3 km/h 63 % 0 mm
07:52 5.2 °C -1.5 °C 1006.3 hPa WNW 11.3 km/h 24.1 km/h 62 % 0 mm
07:57 5.3 °C -1.6 °C 1006.3 hPa West 12.1 km/h 22.2 km/h 61 % 0 mm
08:02 5.5 °C -1.4 °C 1006.3 hPa WSW 13.2 km/h 25.9 km/h 61 % 0 mm
08:07 5.7 °C -1.7 °C 1006.7 hPa WNW 14.5 km/h 27.8 km/h 59 % 0 mm
08:12 5.8 °C -1.6 °C 1006.7 hPa NW 11.7 km/h 16.7 km/h 59 % 0 mm
08:17 6 °C -1.4 °C 1006.7 hPa West 9.7 km/h 14.8 km/h 59 % 0 mm
08:22 6.1 °C -1.6 °C 1006.7 hPa WNW 12.4 km/h 18.5 km/h 58 % 0 mm
08:27 6.2 °C -1.4 °C 1006.3 hPa West 11.3 km/h 24.1 km/h 58 % 0 mm
08:32 6.3 °C -1.6 °C 1006.7 hPa SW 11.3 km/h 14.8 km/h 57 % 0 mm
08:37 6.4 °C -1.4 °C 1006.7 hPa WNW 18.7 km/h 24.1 km/h 57 % 0 mm
08:42 6.4 °C -1.7 °C 1006.3 hPa West 8 km/h 29 km/h 56 % 0 mm
08:47 6.5 °C -1.7 °C 1006.3 hPa WNW 19.3 km/h 32.2 km/h 56 % 0 mm
08:52 6.6 °C -1.4 °C 1006.3 hPa WSW 15.3 km/h 20.9 km/h 57 % 0 mm
08:57 6.7 °C -1.5 °C 1006.7 hPa West 17.5 km/h 27.4 km/h 56 % 0 mm
08:58 6.7 °C -1.5 °C 1006.7 hPa WNW 14 km/h 31.5 km/h 56 % 0 mm
09:03 6.7 °C -1.7 °C 1006.7 hPa WSW 16.9 km/h 25.9 km/h 55 % 0 mm
09:08 6.8 °C -1.7 °C 1006.7 hPa WNW 11.9 km/h 24.1 km/h 55 % 0 mm
09:13 6.8 °C -1.6 °C 1006.7 hPa West 13.4 km/h 20.4 km/h 55 % 0 mm
09:18 7 °C -1.4 °C 1006.7 hPa WSW 11.3 km/h 20.4 km/h 55 % 0 mm
09:23 7 °C -1.7 °C 1007 hPa WSW 12.2 km/h 31.5 km/h 54 % 0 mm
09:28 7.1 °C -1.3 °C 1007 hPa West 16.7 km/h 29.6 km/h 55 % 0 mm
09:33 7.2 °C -1.6 °C 1007 hPa WSW 10.8 km/h 25.9 km/h 54 % 0 mm
09:38 7.3 °C -1.2 °C 1007.3 hPa WNW 6.4 km/h 22.2 km/h 55 % 0 mm
09:43 7.5 °C -1.2 °C 1007 hPa NW 9 km/h 14.5 km/h 54 % 0 mm
09:48 7.6 °C -1.4 °C 1007.3 hPa West 13 km/h 27.8 km/h 53 % 0 mm
09:53 7.7 °C -1.3 °C 1007.3 hPa NW 15.4 km/h 27.8 km/h 53 % 0 mm
09:58 7.7 °C -1.3 °C 1007.3 hPa WSW 15.1 km/h 22.2 km/h 53 % 0 mm
10:03 7.9 °C -0.8 °C 1007.7 hPa WSW 12.1 km/h 20.4 km/h 54 % 0 mm
10:08 8.1 °C -0.9 °C 1007.7 hPa WNW 11.4 km/h 18.5 km/h 53 % 0 mm
10:13 8.2 °C -1.1 °C 1007.7 hPa West 9.5 km/h 27.8 km/h 52 % 0 mm
10:18 8.2 °C -0.6 °C 1007.7 hPa WSW 8.2 km/h 16.7 km/h 54 % 0 mm
10:23 8.2 °C -1.1 °C 1007.7 hPa WSW 15.8 km/h 27.4 km/h 52 % 0 mm
10:28 8.2 °C -1.1 °C 1007.7 hPa WSW 10.5 km/h 18.5 km/h 52 % 0 mm
10:33 8.3 °C -1.3 °C 1007.3 hPa NW 16.4 km/h 31.5 km/h 51 % 0 mm
10:34 8.3 °C -1.3 °C 1007.7 hPa WNW 12.4 km/h 31.5 km/h 51 % 0 mm
10:40 8.3 °C -1.3 °C 1007.7 hPa WNW 8.5 km/h 18.5 km/h 51 % 0 mm
10:45 8.3 °C -0.9 °C 1007.7 hPa WNW 13.8 km/h 18.5 km/h 52 % 0 mm
10:50 8.4 °C -1.4 °C 1007.7 hPa WSW 10.5 km/h 22.2 km/h 50 % 0 mm
10:55 8.6 °C -1 °C 1007.7 hPa West 14 km/h 20.4 km/h 51 % 0 mm
11:00 8.8 °C -0.8 °C 1007.7 hPa NW 11.6 km/h 25.9 km/h 51 % 0 mm
11:05 8.8 °C -0.8 °C 1007.7 hPa WNW 16.4 km/h 27.8 km/h 51 % 0 mm
11:10 8.9 °C -0.7 °C 1007.7 hPa NNW 9.5 km/h 18.5 km/h 51 % 0 mm
11:15 9.1 °C -0.6 °C 1007.7 hPa NW 7.7 km/h 14.5 km/h 51 % 0 mm
11:20 9.5 °C -0.2 °C 1007.7 hPa NW 8.7 km/h 14.5 km/h 51 % 0 mm
11:25 9.7 °C 0.1 °C 1007.7 hPa West 10.5 km/h 24.1 km/h 51 % 0 mm
11:30 9.8 °C 0.1 °C 1007.7 hPa West 9.2 km/h 18.5 km/h 51 % 0 mm
11:32 9.8 °C -0.1 °C 1007.7 hPa WNW 13.2 km/h 22.2 km/h 50 % 0 mm
11:37 9.9 °C -0.3 °C 1007.7 hPa NW 13.4 km/h 22.2 km/h 49 % 0 mm
11:43 10.1 °C -0.4 °C 1007.7 hPa NW 12.9 km/h 24.1 km/h 48 % 0 mm
11:48 10.2 °C -0.4 °C 1007.7 hPa WNW 11.7 km/h 20.9 km/h 48 % 0 mm
11:53 10.3 °C -0.8 °C 1007.7 hPa NW 10 km/h 14.8 km/h 46 % 0 mm
11:58 10.4 °C -0.2 °C 1007.7 hPa NW 15.8 km/h 24.1 km/h 48 % 0 mm
12:03 10.6 °C -0.6 °C 1007.7 hPa WNW 10 km/h 16.7 km/h 46 % 0 mm
12:08 10.5 °C -0.7 °C 1007.7 hPa WSW 12.6 km/h 18.5 km/h 46 % 0 mm
12:13 10.7 °C -0.4 °C 1008 hPa WSW 10.9 km/h 18.5 km/h 46 % 0 mm
12:14 10.7 °C -0.2 °C 1008 hPa NW 9.7 km/h 16.7 km/h 47 % 0 mm
12:19 10.7 °C -0.2 °C 1008 hPa NW 11.3 km/h 20.4 km/h 47 % 0 mm
12:24 10.6 °C -0.6 °C 1008 hPa WNW 11.1 km/h 16.7 km/h 46 % 0 mm
12:29 10.6 °C 0.6 °C 1007.7 hPa WSW 9.2 km/h 14.8 km/h 50 % 0 mm
12:34 10.8 °C 0.2 °C 1007.7 hPa West 10.8 km/h 17.7 km/h 48 % 0 mm
12:36 10.9 °C 0.1 °C 1007.7 hPa NW 9.7 km/h 14.5 km/h 47 % 0 mm
12:41 11.1 °C -0.4 °C 1007.7 hPa NNW 8.2 km/h 16.7 km/h 45 % 0 mm
12:46 11.2 °C -0.6 °C 1007.7 hPa WSW 12.6 km/h 20.4 km/h 44 % 0 mm
12:51 11.2 °C -0.6 °C 1007.7 hPa WSW 8.7 km/h 18.5 km/h 44 % 0 mm
12:56 11.2 °C -0.3 °C 1007.7 hPa West 9.3 km/h 22.2 km/h 45 % 0 mm
13:01 11.4 °C -0.4 °C 1007.7 hPa WNW 15.1 km/h 29.6 km/h 44 % 0 mm
13:07 11.6 °C 0.3 °C 1007.7 hPa WSW 6.9 km/h 31.5 km/h 46 % 0 mm
13:12 11.7 °C -0.2 °C 1007.7 hPa NW 14.5 km/h 25.9 km/h 44 % 0 mm
13:17 11.6 °C -0.6 °C 1007.7 hPa NNW 16.6 km/h 27.8 km/h 43 % 0 mm
13:22 11.5 °C -0.3 °C 1007.7 hPa West 10.3 km/h 27.8 km/h 44 % 0 mm
13:27 11.6 °C 0.4 °C 1007.7 hPa West 4.8 km/h 12.9 km/h 46 % 0 mm
13:32 11.7 °C -1.1 °C 1007.7 hPa NW 13.8 km/h 24.1 km/h 41 % 0 mm
13:37 11.7 °C -0.4 °C 1007.7 hPa WSW 9.3 km/h 18.5 km/h 43 % 0 mm
13:42 11.8 °C -0.3 °C 1007.7 hPa WNW 11.9 km/h 24.1 km/h 43 % 0 mm
13:47 12 °C -0.2 °C 1007.7 hPa NW 6.6 km/h 16.7 km/h 43 % 0 mm
13:52 12.1 °C -0.5 °C 1007.7 hPa North 10.8 km/h 16.7 km/h 42 % 0 mm
13:57 12.2 °C 0 °C 1007.7 hPa West 6.9 km/h 18.5 km/h 43 % 0 mm
14:02 12.3 °C 0.1 °C 1007.7 hPa WNW 7.4 km/h 13 km/h 43 % 0 mm
14:07 12.4 °C -0.4 °C 1007.7 hPa NW 17.7 km/h 22.5 km/h 41 % 0 mm
14:12 12.4 °C -0.5 °C 1007.7 hPa West 15.8 km/h 22.5 km/h 41 % 0 mm
14:17 12.4 °C -0.5 °C 1007.7 hPa WNW 13.4 km/h 27.8 km/h 41 % 0 mm
14:19 12.4 °C -0.4 °C 1007.7 hPa NW 14.6 km/h 29 km/h 41 % 0 mm
14:24 12.5 °C -0.4 °C 1007.7 hPa North 9.7 km/h 16.1 km/h 41 % 0 mm
14:29 12.6 °C -0.4 °C 1007.7 hPa NNW 6.4 km/h 20.4 km/h 41 % 0 mm
14:34 12.6 °C -1.1 °C 1007.7 hPa WSW 12.9 km/h 22.5 km/h 39 % 0 mm
14:39 12.6 °C -0.4 °C 1007.7 hPa West 11.9 km/h 22.5 km/h 41 % 0 mm
14:44 12.6 °C -0.4 °C 1007.7 hPa WNW 14 km/h 25.9 km/h 41 % 0 mm
14:49 12.6 °C 0.6 °C 1007.7 hPa WNW 10.6 km/h 25.7 km/h 44 % 0 mm
14:54 12.7 °C 0.1 °C 1007.7 hPa WNW 13.8 km/h 29.6 km/h 42 % 0 mm
14:59 12.8 °C -0.8 °C 1007.7 hPa NW 12.9 km/h 27.8 km/h 39 % 0 mm
15:04 12.8 °C -0.1 °C 1007.7 hPa NW 8.5 km/h 18.5 km/h 41 % 0 mm
15:09 12.9 °C 0.7 °C 1007.7 hPa WNW 14.2 km/h 18.5 km/h 43 % 0 mm
15:14 13.1 °C -0.3 °C 1007.7 hPa WNW 15 km/h 24.1 km/h 40 % 0 mm
15:19 13.1 °C 0.1 °C 1007.7 hPa WSW 9.3 km/h 16.7 km/h 41 % 0 mm
15:21 13.2 °C -0.2 °C 1007.7 hPa WNW 16.1 km/h 24.1 km/h 40 % 0 mm
15:26 13.1 °C -0.2 °C 1007.7 hPa North 7.4 km/h 18.5 km/h 40 % 0 mm
15:31 13.2 °C -0.2 °C 1007.7 hPa WNW 10 km/h 20.4 km/h 40 % 0 mm
15:36 13.2 °C -0.1 °C 1007.7 hPa WNW 10.3 km/h 22.2 km/h 40 % 0 mm
15:41 13.2 °C -0.5 °C 1007.7 hPa WSW 10 km/h 22.2 km/h 39 % 0 mm
15:46 13.2 °C 0.2 °C 1007.7 hPa WNW 11.3 km/h 19.3 km/h 41 % 0 mm
15:51 13.3 °C -0.8 °C 1007.7 hPa NNW 15 km/h 20.9 km/h 38 % 0 mm
15:56 13.2 °C -0.8 °C 1007.7 hPa West 8.9 km/h 25.9 km/h 38 % 0 mm
16:01 13.3 °C -0.8 °C 1007.7 hPa NW 6.8 km/h 18.5 km/h 38 % 0 mm
16:06 13.3 °C -0.8 °C 1007.7 hPa NNW 14 km/h 18.5 km/h 38 % 0 mm
16:11 13.3 °C 0 °C 1007.7 hPa NNW 6.6 km/h 18.5 km/h 40 % 0 mm
16:16 13.3 °C -0.4 °C 1007.7 hPa WNW 6.6 km/h 12.9 km/h 39 % 0 mm
16:21 13.3 °C -1.4 °C 1007.7 hPa WNW 13.2 km/h 20.4 km/h 36 % 0 mm
16:26 13.3 °C -0.8 °C 1007.7 hPa West 4.7 km/h 20.4 km/h 38 % 0 mm
16:31 13.3 °C -0.7 °C 1007.7 hPa WNW 11.9 km/h 14.8 km/h 38 % 0 mm
16:34 13.4 °C -1 °C 1007.7 hPa NW 11.4 km/h 18.5 km/h 37 % 0 mm
16:39 13.5 °C -0.2 °C 1008 hPa WNW 8.2 km/h 20.4 km/h 39 % 0 mm
16:44 13.5 °C -0.6 °C 1008 hPa WNW 7.7 km/h 18.5 km/h 38 % 0 mm
16:49 13.5 °C -0.6 °C 1008 hPa WNW 7.7 km/h 12.9 km/h 38 % 0 mm
16:54 13.4 °C -0.6 °C 1008 hPa NW 5.1 km/h 16.7 km/h 38 % 0 mm
16:59 13.3 °C -0.3 °C 1008 hPa WNW 9 km/h 14.8 km/h 39 % 0 mm
17:04 13.3 °C -0.7 °C 1008 hPa NW 12.6 km/h 25.9 km/h 38 % 0 mm
17:09 13.3 °C -0.8 °C 1008 hPa West 13 km/h 20.4 km/h 38 % 0 mm
17:14 13.2 °C -0.8 °C 1008.4 hPa WNW 14.8 km/h 24.1 km/h 38 % 0 mm
17:19 13.2 °C -0.1 °C 1008 hPa NNW 9.5 km/h 18.5 km/h 40 % 0 mm
17:24 13.1 °C -0.2 °C 1008.4 hPa NNW 11.7 km/h 24.1 km/h 40 % 0 mm
17:29 13.1 °C -1.3 °C 1008.4 hPa West 7.1 km/h 24.1 km/h 37 % 0 mm
17:34 12.9 °C -1.4 °C 1008.4 hPa WNW 9 km/h 20.4 km/h 37 % 0 mm
17:39 12.8 °C -1.5 °C 1008.4 hPa West 10.8 km/h 14.8 km/h 37 % 0 mm
17:44 12.7 °C -0.9 °C 1008.4 hPa North 5.5 km/h 20.4 km/h 39 % 0 mm
17:49 12.7 °C -0.3 °C 1008.4 hPa NW 9.8 km/h 18.5 km/h 41 % 0 mm
17:52 12.6 °C 0 °C 1008.7 hPa NW 8 km/h 19.3 km/h 42 % 0 mm
17:57 12.4 °C -1.2 °C 1008.7 hPa SW 7.9 km/h 29.6 km/h 39 % 0 mm
18:02 12.2 °C -1.1 °C 1008.7 hPa NW 11.7 km/h 18.5 km/h 40 % 0 mm
18:07 12 °C -1.2 °C 1008.7 hPa NNW 12.2 km/h 22.2 km/h 40 % 0 mm
18:12 11.8 °C -1.3 °C 1008.7 hPa WNW 5.3 km/h 20.4 km/h 40 % 0 mm
18:17 11.7 °C -0.8 °C 1008.7 hPa NW 11.3 km/h 18.5 km/h 42 % 0 mm
18:22 11.6 °C -0.9 °C 1008.7 hPa WNW 10.9 km/h 29.6 km/h 42 % 0 mm
18:27 11.5 °C -1.3 °C 1009 hPa NNW 7.4 km/h 14.8 km/h 41 % 0 mm
18:32 11.4 °C -0.7 °C 1009 hPa NW 8.2 km/h 13 km/h 43 % 0 mm
18:37 11.3 °C -0.5 °C 1009 hPa WNW 7.1 km/h 18.5 km/h 44 % 0 mm
18:42 11.2 °C -0.3 °C 1009.4 hPa WNW 4.8 km/h 11.3 km/h 45 % 0 mm
18:47 11.1 °C -1 °C 1009.4 hPa NW 12.2 km/h 18.5 km/h 43 % 0 mm
18:52 11 °C -0.8 °C 1009.4 hPa WNW 7.9 km/h 14.8 km/h 44 % 0 mm
18:57 10.9 °C -0.3 °C 1009.4 hPa WNW 8.7 km/h 14.8 km/h 46 % 0 mm
19:02 10.8 °C -0.7 °C 1009.4 hPa WNW 8.7 km/h 16.7 km/h 45 % 0 mm
19:08 10.7 °C -1.1 °C 1009.7 hPa NW 9.7 km/h 20.9 km/h 44 % 0 mm
19:13 10.7 °C -1.1 °C 1009.7 hPa WNW 7.6 km/h 16.7 km/h 44 % 0 mm
19:18 10.7 °C -0.8 °C 1009.7 hPa West 6 km/h 14.8 km/h 45 % 0 mm
19:23 10.6 °C -0.8 °C 1010 hPa WNW 6.4 km/h 11.1 km/h 45 % 0 mm
19:28 10.6 °C -0.6 °C 1010 hPa West 4.8 km/h 11.1 km/h 46 % 0 mm
19:33 10.4 °C -0.4 °C 1010 hPa West 7.2 km/h 14.8 km/h 47 % 0 mm
19:38 10.3 °C -0.2 °C 1010.4 hPa WNW 1.8 km/h 5.6 km/h 48 % 0 mm
19:43 10.2 °C -0.6 °C 1010.4 hPa West 5.6 km/h 9.3 km/h 47 % 0 mm
19:48 10.1 °C -0.7 °C 1010.7 hPa WNW 6 km/h 14.8 km/h 47 % 0 mm
19:53 10.1 °C -0.8 °C 1010.7 hPa WNW 6.3 km/h 14.8 km/h 47 % 0 mm
19:58 10 °C -0.8 °C 1010.7 hPa West 3.1 km/h 14.8 km/h 47 % 0 mm
20:03 9.9 °C -0.8 °C 1010.7 hPa WNW 7.1 km/h 13 km/h 47 % 0 mm
20:08 9.9 °C -0.3 °C 1011.1 hPa NW 6 km/h 13 km/h 49 % 0 mm
20:13 9.8 °C -0.4 °C 1011.1 hPa NW 3.1 km/h 11.1 km/h 49 % 0 mm
20:18 9.7 °C -0.5 °C 1011.4 hPa WNW 6.1 km/h 16.7 km/h 49 % 0 mm
20:23 9.7 °C -0.6 °C 1011.4 hPa WNW 9.8 km/h 18.5 km/h 49 % 0 mm
20:28 9.6 °C -0.6 °C 1011.7 hPa NW 1.4 km/h 6.4 km/h 49 % 0 mm
20:33 9.6 °C -0.3 °C 1011.7 hPa WNW 6 km/h 11.1 km/h 50 % 0 mm
20:38 9.5 °C -0.4 °C 1011.7 hPa WNW 6.9 km/h 11.3 km/h 50 % 0 mm
20:43 9.4 °C -0.5 °C 1011.7 hPa NW 5.1 km/h 9.7 km/h 50 % 0 mm
20:48 9.3 °C -1.1 °C 1012.1 hPa West 6 km/h 13 km/h 48 % 0 mm
20:53 9.3 °C -1.1 °C 1012.1 hPa WNW 2.3 km/h 9.3 km/h 48 % 0 mm
20:58 9.3 °C -1.4 °C 1012.4 hPa WNW 6.8 km/h 13 km/h 47 % 0 mm
21:04 9.3 °C -1.8 °C 1012.4 hPa NW 9.2 km/h 18.5 km/h 46 % 0 mm
21:09 9.3 °C -1.7 °C 1012.4 hPa NNW 5.6 km/h 9.3 km/h 46 % 0 mm
21:14 9.3 °C -1.7 °C 1012.4 hPa WSW 6.6 km/h 18.5 km/h 46 % 0 mm
21:19 9.3 °C -1.7 °C 1012.8 hPa WNW 4.5 km/h 9.3 km/h 46 % 0 mm
21:24 9.3 °C -2 °C 1012.8 hPa WNW 8 km/h 16.7 km/h 45 % 0 mm
21:29 9.3 °C -1.8 °C 1012.8 hPa WNW 9.8 km/h 18.5 km/h 46 % 0 mm
21:34 9.3 °C -1.8 °C 1012.8 hPa WNW 7.9 km/h 16.7 km/h 46 % 0 mm
21:39 9.3 °C -1.8 °C 1012.8 hPa West 9 km/h 16.7 km/h 46 % 0 mm
21:44 9.3 °C -1.8 °C 1013.1 hPa WNW 8.7 km/h 16.7 km/h 46 % 0 mm
21:49 9.2 °C -1.5 °C 1013.1 hPa WNW 9.7 km/h 16.1 km/h 47 % 0 mm
21:54 9.2 °C -1.6 °C 1013.1 hPa NW 10.1 km/h 14.8 km/h 47 % 0 mm
21:59 9.1 °C -1.6 °C 1013.1 hPa NNW 6.1 km/h 13 km/h 47 % 0 mm
22:04 9.1 °C -1.9 °C 1013.1 hPa WNW 5.1 km/h 13 km/h 46 % 0 mm
22:09 9 °C -1.7 °C 1013.1 hPa West 6 km/h 14.8 km/h 47 % 0 mm
22:14 9 °C -2 °C 1013.4 hPa West 3.1 km/h 16.7 km/h 46 % 0 mm
22:19 8.9 °C -2.1 °C 1013.4 hPa WNW 10.9 km/h 18.5 km/h 46 % 0 mm
22:24 8.9 °C -2.1 °C 1013.8 hPa NW 5.6 km/h 13 km/h 46 % 0 mm
22:29 8.9 °C -1.8 °C 1013.8 hPa WNW 7.2 km/h 18.5 km/h 47 % 0 mm
22:33 8.8 °C -1.9 °C 1013.8 hPa West 9.5 km/h 16.7 km/h 47 % 0 mm
22:38 8.8 °C -1.6 °C 1013.8 hPa NW 6.4 km/h 13 km/h 48 % 0 mm
22:43 8.8 °C -1.7 °C 1013.8 hPa WNW 5.8 km/h 11.3 km/h 48 % 0 mm
22:48 8.7 °C -1.2 °C 1014.1 hPa WNW 7.6 km/h 14.8 km/h 50 % 0 mm
22:53 8.6 °C -1.6 °C 1014.1 hPa WNW 4.8 km/h 11.3 km/h 49 % 0 mm
22:58 8.5 °C -1.3 °C 1014.4 hPa NW 5.6 km/h 9.7 km/h 50 % 0 mm
23:03 8.4 °C -1.1 °C 1014.4 hPa NW 5 km/h 7.4 km/h 51 % 0 mm
23:08 8.3 °C -0.9 °C 1014.4 hPa NW 7.1 km/h 11.3 km/h 52 % 0 mm
23:14 8.2 °C -0.8 °C 1014.4 hPa NW 1.6 km/h 7.4 km/h 53 % 0 mm
23:17 8.2 °C -0.6 °C 1014.8 hPa WNW 0.6 km/h 5.6 km/h 54 % 0 mm
23:22 8.1 °C -0.4 °C 1014.8 hPa NW 2.6 km/h 5.6 km/h 55 % 0 mm
23:27 7.9 °C -0.6 °C 1014.8 hPa NW 1.4 km/h 5.6 km/h 55 % 0 mm
23:32 7.8 °C -0.2 °C 1014.8 hPa NW 0.8 km/h 5.6 km/h 57 % 0 mm
23:37 7.7 °C -0.1 °C 1015.1 hPa NW 3.1 km/h 5.6 km/h 58 % 0 mm
23:42 7.6 °C -0.2 °C 1015.1 hPa WNW 2.9 km/h 8 km/h 58 % 0 mm
23:47 7.4 °C -0.1 °C 1015.1 hPa NW 1.8 km/h 5.6 km/h 59 % 0 mm
23:52 7.3 °C -0.2 °C 1015.1 hPa NW 3.4 km/h 11.3 km/h 59 % 0 mm
23:57 7.2 °C -0.1 °C 1015.5 hPa NW 1.4 km/h 1.9 km/h 60 % 0 mm
Crab Meadow Weather
Compliments of Weather Underground - 3 mb

Script developed by  Jim McMurry - jmcmurry@mwt.net Adapted for the template by  Wim van der Kuil - Leuven-Template.eu

One Inch of Rain: One inch of rain over one square mile equals to 17.4 million gallons of water.